Location: Katzenstein
(51.7484°N, 10.2155°E)
Time: 19:38:02
(UTC+00:00)

Cosmos 1238 - Pass Details

Date: 17 February 2020
Orbit: 392 x 1426 km, 83.0° (Epoch: 05 April)

Event Time Altitude Azimuth Distance (km) Brightness Sun altitude
Rises 04:56:39 0° 188° (S) 2,334 8.0 -15.2°
Reaches altitude 10° 04:58:39 10° 189° (S) 1,443 6.9 -14.9°
Maximum altitude 05:01:41 90° 97° (E) 402 4.1 -14.4°
Drops below altitude 10° 05:04:49 10° 10° (N) 1,495 7.1 -13.9°
Sets 05:06:55 0° 10° (N) 2,430 8.2 -13.6°
